Location: Cottbus
(51.7000°N, 14.3000°E)
Time: 00:38:05
(UTC+02:00)

ISS - Visible Passes

Search period start: 22 October 2019 00:00
Search period end: 31 October 2019 23:00
Orbit: 411 x 421 km, 51.6° (Epoch: 21 October)

Date Brightness Start Highest point End Pass type
(mag) Time Alt. Az. Time Alt. Az. Time Alt. Az.
24 Oct -0.7 06:51:05 10° S 06:52:53 14° SE 06:54:42 10° ESE visible
26 Oct -1.7 06:49:10 10° SSW 06:52:03 26° SSE 06:54:56 10° E visible
27 Oct -1.3 05:01:09 10° S 05:03:36 19° SE 05:06:03 10° E visible
28 Oct -1.0 04:14:37 13° SSE 04:15:11 13° SE 04:16:48 10° ESE visible
28 Oct -2.9 05:48:04 10° SW 05:51:19 47° SSE 05:54:35 10° E visible
29 Oct -2.4 05:01:14 22° SSW 05:02:46 35° SSE 05:05:53 10° E visible
30 Oct -1.7 04:14:50 24° SE 04:14:50 24° SE 04:17:05 10° E visible
30 Oct -3.6 05:47:44 13° WSW 05:50:40 73° SSE 05:54:01 10° E visible
31 Oct -3.4 05:01:13 43° SW 05:02:02 59° SSE 05:05:21 10° E visible
